Location: Six Mile Lake
(44.9000°N, 79.7170°W)
Time: 03:20:16
(UTC-04:00)

UKube-1 - Pass Details

Date: 08 July 2022
Orbit: 608 x 615 km, 98.4° (Epoch: 09 August)

Event Time Altitude Azimuth Distance (km) Brightness Sun altitude
Rises 00:28:47 0° 0° (N) 2,891 ? -21.5°
Reaches altitude 10° 00:31:23 10° 345° (NNW) 1,980 ? -21.6°
Maximum altitude 00:34:36 21° 296° (WNW) 1,383 ? -21.7°
Enters shadow 00:37:45 10° 248° (WSW) 1,946 ? -21.8°
